Location: Pinhey's Point
(45.4411°N, 75.9539°W)
Time: 03:13:28
(UTC-04:00)

Daily predictions for brighter satellites

Satellite Brightness Start Highest point End
(mag) Time Altitude Azimuth Time Altitude Azimuth Time Altitude Azimuth
Cosmos 2221 3.4 00:00:47 10° N 00:04:47 35° ENE 00:05:14 34° E
COSMOS 2455 4.3 00:01:10 10° WSW 00:06:39 36° NW 00:12:11 10° NNE
Cosmos 1607 4.4 00:06:14 39° SE 00:07:00 41° ESE 00:12:46 10° NE
SL-8 R/B 4.0 00:02:22 10° WNW 00:07:13 67° N 00:10:38 19° E
Cosmos-2242 4.0 00:03:49 10° NNW 00:07:52 36° W 00:08:43 33° WSW
Cosmos 2084 3.3 00:03:44 10° NW 00:07:52 76° NE 00:08:15 69° E
Cosmos 407 Rocket 4.4 00:05:14 20° SW 00:08:32 45° WNW 00:13:34 10° N
Cosmos 2208 Rocket 3.9 00:04:45 10° NNW 00:09:58 89° WSW 00:11:03 57° SSE
H-2A R/B 2.9 00:06:59 10° NNE 00:10:14 43° ENE 00:10:14 43° ENE
Landsat 5 3.9 00:12:43 44° ENE 00:12:52 45° ENE 00:16:41 10° N
Cosmos 1733 3.6 00:09:13 10° N 00:12:56 54° ENE 00:12:56 54° ENE
ATLAS 3B R/B 3.1 00:05:39 10° SW 00:13:20 71° NW 00:20:49 10° NE
Cosmos 1953 3.5 00:13:10 10° NNW 00:16:44 32° W 00:17:03 31° W
CZ-4C R/B 3.5 00:18:31 52° NNW 00:18:31 52° NNW 00:21:03 10° NNW
Cosmos 1470 2.7 00:16:04 10° N 00:19:48 82° N 00:19:48 82° N
Cosmos 1656 Rocket 3.7 00:15:09 10° NNW 00:20:53 81° ENE 00:22:26 50° SE
ALOS 2 2.5 00:21:10 67° ESE 00:21:34 72° ENE 00:25:57 10° N
Lacrosse 5 rocket 4.4 00:20:34 10° NW 00:23:23 17° N 00:26:18 10° NE
CZ-4B R/B 1.9 00:23:54 63° NE 00:23:54 63° NE 00:27:13 10° N
Cosmos 2369 Rocket 3.9 00:22:42 10° WNW 00:26:31 19° W 00:28:01 17° WSW
Cosmos 614 Rocket 3.9 00:26:00 60° SSE 00:26:42 68° ESE 00:31:53 10° NNE
Lacrosse 4 Rocket 2.8 00:26:58 23° W 00:28:43 34° NW 00:32:30 10° NNE
CZ-2C R/B 3.9 00:24:58 10° NE 00:29:38 27° E 00:30:30 26° ESE
Cosmos 1092 Rocket 4.1 00:28:12 40° SSW 00:30:33 71° W 00:36:52 10° N
H-2A R/B 4.3 00:31:07 10° WSW 00:33:04 13° W 00:35:13 10° WNW
CZ-4C R/B 3.3 00:35:52 28° ESE 00:35:52 28° ESE 00:40:33 10° NE
Helios 1B 4.4 00:36:09 80° SE 00:36:22 87° ENE 00:40:44 10° NNW
Meteor 1-16 Rocket 4.2 00:32:23 10° N 00:37:58 80° E 00:39:18 54° SSE
Cosmos 1741 Rocket 4.0 00:38:52 53° SW 00:40:08 79° WNW 00:45:30 10° NNE
Cosmos 1408 Rocket 3.9 00:41:26 53° E 00:41:31 53° E 00:45:53 10° NNE
Cosmos 1655 Rocket 4.0 00:40:35 49° S 00:42:25 79° E 00:48:43 10° N
USA 238 DEB 3.7 00:39:28 35° SW 00:42:46 87° ESE 00:49:52 10° NE
USA 238 3.7 00:39:36 36° SSW 00:42:51 87° SE 00:49:57 10° NE
S3M 4.1 00:38:05 10° N 00:44:21 65° E 00:46:17 44° SE
COSMOS 2406 3.3 00:44:14 42° SW 00:46:12 71° WNW 00:51:57 10° NNE
Cosmos 405 Rocket 4.0 00:47:52 32° ENE 00:47:52 32° ENE 00:50:49 10° NNE
Cosmos 2278 4.4 00:45:59 10° NNW 00:51:30 49° ENE 00:53:58 30° ESE
ISS -1.9 00:55:47 38° NNW 00:55:47 38° NNW 00:58:51 10° NE
Cosmos 1340 3.5 00:58:22 43° WNW 00:58:22 43° WNW 01:01:55 10° N
Cosmos 1743 Rocket 4.1 01:05:46 45° E 01:05:54 45° E 01:10:10 10° NNE
NOSS 3-3 (A) 4.5 00:59:36 10° NW 01:07:00 81° NE 01:11:38 28° SE
NOSS 3-3 (C) 4.5 00:59:43 10° NW 01:07:07 81° NE 01:11:48 27° SE
Cosmos 1428 Rocket 4.4 01:05:39 51° S 01:07:19 81° E 01:13:32 10° N
Cosmos 1707 3.7 01:09:04 39° WNW 01:09:05 39° WNW 01:12:48 10° N
COSMOS 2487 3.4 01:14:10 43° NW 01:14:10 43° NW 01:17:24 10° N
Cosmos 1151 Rocket 4.4 01:10:36 10° NNE 01:14:20 28° ENE 01:15:17 26° E
Cosmos 2082 Rocket 3.4 01:15:37 25° ESE 01:16:29 26° ESE 01:21:07 10° NE
NOSS 3-2 (C) 3.7 01:15:54 47° SSE 01:17:09 54° ESE 01:23:37 10° NE
Meteor 1-24 Rocket 3.9 01:17:34 48° SSW 01:19:17 72° WNW 01:25:16 10° N
Cosmos 1766 Rocket 3.6 01:19:39 66° WSW 01:19:57 69° W 01:24:27 10° N
Cosmos 1697 Rocket 4.2 01:15:10 10° N 01:20:13 32° NE 01:25:07 10° ESE
Cosmos 1500 Rocket 4.0 01:24:32 48° ESE 01:24:43 48° E 01:28:54 10° NNE
CENTAUR R/B 4.3 01:23:56 14° ESE 01:25:21 15° ESE 01:28:56 10° ENE
Cosmos 2026 Rocket 4.5 01:23:26 36° SW 01:25:28 49° WNW 01:31:21 10° N
Lacrosse 5 3.7 01:21:19 10° NW 01:25:51 31° NNE 01:30:22 10° E
Cosmos 468 Rocket 3.9 01:21:34 10° NNW 01:26:50 69° WSW 01:27:34 60° SSW
Cosmos 2228 Rocket 3.0 01:24:09 10° NNW 01:28:34 70° W 01:28:40 70° WSW
Cosmos 1814 Rocket 3.9 01:24:31 10° NNW 01:29:47 74° WSW 01:30:39 60° SSW
Cosmos 1818 3.5 01:26:48 10° NW 01:32:19 85° NE 01:34:05 45° SE
Cosmos 1833 Rocket 3.9 01:31:12 25° ESE 01:32:21 27° ESE 01:37:02 10° NE
Cosmos 1328 Rocket 3.4 01:28:19 10° N 01:32:42 83° W 01:32:53 80° SSW
Meteor 2-2 Rocket 4.5 01:27:24 10° N 01:33:04 64° ENE 01:35:04 40° SE
Helios 1A Rocket 3.9 01:30:00 10° N 01:33:45 37° WNW 01:34:08 36° W
BREEZE-M DEB (TANK) 3.5 01:36:19 32° NW 01:37:12 46° NNE 01:42:15 10° E
Meteor 2-20 4.4 01:35:31 48° S 01:37:23 81° E 01:43:34 10° N
Cosmos 1515 Rocket 3.4 01:36:52 10° N 01:41:20 87° WSW 01:41:40 76° S
Cosmos 1486 Rocket 3.9 01:40:28 60° SSW 01:41:27 87° ESE 01:46:42 10° NNE
Cosmos 2221 4.2 01:38:52 10° NW 01:42:07 21° W 01:42:07 21° W
Cosmos 1943 Rocket 4.4 01:41:15 10° W 01:42:17 10° W 01:42:31 10° W
Meteor 1-21 Rocket 4.2 01:42:31 49° S 01:44:06 76° E 01:49:49 10° NNE
SL-8 R/B 4.3 01:45:03 10° WNW 01:48:32 42° WSW 01:48:32 42° WSW
Cosmos 2344 3.8 01:48:16 38° S 01:51:24 62° ESE 02:00:04 10° NE
Cosmos 1674 3.2 01:53:15 49° E 01:53:15 49° E 01:56:52 10° NNE
Cosmos 883 Rocket 4.5 01:49:18 10° NNW 01:55:39 74° W 01:57:48 44° SSW
BREEZE-M TANK 3.5 01:48:05 10° SW 01:59:21 49° SSE 02:02:42 10° E
ASTEX 1 3.5 01:58:20 10° N 02:03:20 68° E 02:04:38 47° SSE
Cosmos 1726 4.3 02:00:36 10° NNE 02:03:26 20° ENE 02:05:06 16° ESE
NOSS 3-2 (A) 3.7 02:00:44 33° WSW 02:03:39 70° NW 02:10:27 10° NE
Lacrosse 5 rocket 4.0 02:00:34 10° NW 02:03:57 22° NNE 02:07:27 10° ENE
Cosmos 1656 3.7 01:59:49 10° NNW 02:05:34 81° ENE 02:08:17 32° SSE
CZ-2C R/B 3.3 02:04:29 47° SSW 02:05:47 61° W 02:11:24 10° NNW
Cosmos 1867 3.5 02:06:26 50° S 02:07:50 74° ESE 02:13:19 10° NE
Cosmos 2322 Rocket 4.5 02:05:32 10° N 02:09:55 22° NE 02:14:15 10° E
CZ-2C R/B 3.3 02:04:46 10° N 02:10:07 47° WNW 02:12:01 34° WSW
Cosmos 2369 4.0 02:06:15 10° NW 02:11:41 49° WSW 02:12:42 43° SW
Cosmos 1763 Rocket 3.6 02:08:04 10° NNW 02:13:18 57° WSW 02:14:20 48° SSW
Cosmos 1805 Rocket 4.3 02:14:06 36° SE 02:15:15 45° E 02:19:30 10° NNE
Cosmos 2315 Rocket 4.0 02:09:01 10° NNW 02:15:21 74° W 02:17:48 39° S
USA 32 3.9 02:18:07 10° N 02:23:24 83° W 02:25:10 43° S
CZ-4C R/B 2.7 02:21:00 29° WSW 02:23:44 55° NW 02:29:48 10° NNE
COS B Rocket 4.3 02:21:40 10° N 02:22:54 26° N 02:22:54 26° N
Genesis I 3.1 02:20:19 10° NW 02:24:19 87° WSW 02:24:52 65° SSE
Cosmos 1354 Rocket 4.0 02:23:43 44° SW 02:25:25 75° WNW 02:30:46 10° NNE
Cosmos 1633 Rocket 4.2 02:24:13 26° SE 02:25:53 36° E 02:29:57 10° NNE
Cosmos 540 Rocket 3.7 02:21:07 10° NNW 02:26:17 66° ENE 02:29:31 23° SE
Cosmos 1707 Rocket 3.8 02:22:25 10° N 02:26:48 65° E 02:28:17 39° SSE
Cosmos 1908 3.8 02:25:20 10° NNW 02:28:52 41° W 02:28:52 41° W
Abrixas 4.4 02:30:35 22° E 02:30:35 22° E 02:32:05 10° E
USA 215 3.3 02:23:04 10° NE 02:29:35 66° SE 02:32:33 34° SSW
Cosmos 1666 Rocket 4.1 02:30:24 35° SE 02:31:46 49° E 02:35:57 10° NNE
ISS -1.1 02:29:55 10° WNW 02:32:45 26° N 02:35:35 10° ENE
Cosmos 1437 Rocket 2.9 02:29:07 10° NNW 02:33:00 55° W 02:33:10 54° WSW
Cosmos 1503 Rocket 4.2 02:32:01 40° SW 02:33:54 67° WNW 02:39:13 10° NNE
Cosmos 1745 Rocket 4.4 02:32:34 26° SSE 02:36:09 61° E 02:42:23 10° NNE
Cosmos 1980 Rocket 2.3 02:36:51 10° NNW 02:42:31 77° ENE 02:47:28 14° SSE
Nadezhda 1 Rocket 4.2 02:36:30 10° N 02:42:41 67° E 02:47:11 19° SSE
H-2A R/B 3.6 02:45:14 23° SSE 02:46:22 24° SSE 02:57:13 10° ESE
Aureole 1 Rocket 3.3 02:42:27 10° NNW 02:46:45 68° WSW 02:49:13 32° S
Cosmos 841 Rocket 4.4 02:45:14 10° NW 02:49:47 31° W 02:50:32 29° WSW
JB-3 4.3 02:46:31 10° N 02:50:34 78° WNW 02:51:35 49° SSW
PSLV R/B 3.8 02:46:14 10° N 02:50:51 63° WNW 02:52:22 39° SW
Cosmos 1151 Rocket 4.2 02:48:14 10° NNW 02:51:49 26° W 02:52:08 26° W
Cosmos 1441 Rocket 4.2 02:51:18 32° W 02:52:01 35° WNW 02:55:41 10° N
Cosmos 1300 2.6 02:48:32 10° NNW 02:52:23 76° W 02:53:16 51° S
BREEZE-M DEB (TANK) 3.6 02:52:17 24° SE 02:52:50 25° SE 02:57:49 10° ENE
SL-08 R/B 3.3 02:52:16 27° SSE 02:54:53 89° ENE 02:59:49 10° NNW
USA 161 3.2 02:54:33 19° E 02:55:12 22° ENE 02:57:09 10° NNE
Cosmos 332 Rocket 3.7 02:51:37 10° NNW 02:56:27 85° ENE 02:59:45 20° SSE
ERS-2 2.1 02:54:35 10° NNE 02:58:20 80° WNW 02:59:15 49° SSW
Cosmos 2082 Rocket 2.7 02:57:27 27° WSW 03:00:15 51° WNW 03:05:48 10° NNE
Cosmos 968 Rocket 4.2 02:58:33 23° SSE 03:01:22 44° ESE 03:06:14 10° NNE
Cosmos 405 3.8 02:58:15 10° NNW 03:01:34 35° W 03:01:37 35° W
CZ-2D R/B 4.1 02:58:37 10° NE 03:02:39 22° E 03:06:42 10° SE
Cosmos 1437 2.7 03:03:03 58° SSW 03:03:37 78° W 03:06:58 10° N
NPP 3.6 02:58:11 10° NNE 03:03:38 87° ESE 03:06:31 29° SSW
Cosmos 1697 Rocket 3.0 02:58:58 10° NW 03:04:22 46° WSW 03:06:47 29° SSW
Cosmos 1538 Rocket 4.2 03:00:07 10° NNW 03:05:21 73° ENE 03:10:35 10° SSE
Cosmos 2151 4.1 03:07:23 26° WSW 03:08:34 30° WNW 03:12:21 10° NNW
Lacrosse 5 1.7 03:04:11 10° NW 03:09:16 81° SW 03:14:19 10° SE
Sich 1 3.0 03:08:35 35° SSW 03:10:21 73° W 03:14:48 10° N
Meteor 1-27 4.4 03:07:01 10° NNW 03:12:45 57° W 03:16:02 25° SSW
SAR-Lupe-3 4.4 03:12:04 36° S 03:13:25 80° WSW 03:17:00 10° NNW
CENTAUR R/B 2.5 03:11:06 27° SSW 03:14:44 83° SE 03:21:44 10° NE
Cosmos 1833 Rocket 3.2 03:12:53 25° WSW 03:15:59 49° WNW 03:21:29 10° NNE
Cosmos 2058 3.7 03:15:59 30° WSW 03:17:21 39° WNW 03:21:18 10° N
Cosmos 2360 4.1 03:11:52 10° NNW 03:17:37 82° WSW 03:23:19 10° SSE
Cosmos 1869 4.4 03:15:05 10° N 03:18:52 42° ENE 03:22:39 10° SSE
Cosmos 1862 Rocket 4.0 03:14:56 10° N 03:19:24 63° E 03:23:26 12° SSE
Cosmos 1455 2.9 03:16:23 10° N 03:20:07 51° ENE 03:23:26 12° SSE
ADEOS 3.7 03:15:17 10° NNE 03:20:32 76° ESE 03:24:00 22° S
SL-14 R/B 3.5 03:22:41 33° SW 03:24:02 51° WNW 03:27:48 10° N
CBERS-1 4.0 03:21:05 10° N 03:26:11 72° WNW 03:29:15 24° SSW
BREEZE-M DEB (TANK) 4.1 03:15:41 10° W 03:28:21 87° N 03:32:16 10° E
ATLAS 5 CENTAUR R/B 4.1 03:28:01 10° SSE 03:31:08 17° ESE 03:34:23 10° ENE
IRS-1D 4.3 03:26:44 10° NNE 03:31:58 50° E 03:36:49 11° S
Cosmos 2181 Rocket 4.2 03:26:46 10° N 03:32:56 73° E 03:39:07 10° SSE
Cosmos 2242 Rocket 4.2 03:31:07 10° NNW 03:35:15 39° W 03:37:15 25° SW
Meteor 1-4 Rocket 2.5 03:32:13 10° NNW 03:35:58 86° W 03:38:51 17° S
ARIANE 5 R/B 2.9 03:31:11 10° NNE 03:36:16 60° E 03:40:36 14° S
Cosmos 773 Rocket 4.1 03:31:06 10° NNW 03:36:16 77° ENE 03:41:24 10° SSE
USA 129 4.3 03:37:16 13° NE 03:37:16 13° NE 03:37:41 10° NE
Meteor 2-10 4.0 03:32:17 10° NNW 03:37:27 72° W 03:42:16 13° S
Cosmos 1703 3.4 03:35:30 27° SSW 03:37:32 62° W 03:41:29 10° N
Cosmos 1726 3.2 03:35:41 10° NNW 03:38:50 27° W 03:39:46 24° WSW
SL-16 R/B 2.3 03:34:14 10° NNW 03:39:57 84° ENE 03:45:38 10° SSE
IRS-1C 4.3 03:37:45 10° N 03:43:02 64° WNW 03:46:48 19° SSW
Lacrosse 5 rocket 1.9 03:39:33 10° NW 03:43:55 66° NE 03:48:26 10° ESE
EO 1 Del DPAF 3.2 03:45:20 11° S 03:49:03 78° WSW 03:52:59 10° NNW
Cosmos 371 Rocket 3.6 03:44:49 10° NNW 03:49:29 47° WSW 03:53:43 12° S
Cosmos 2322 Rocket 2.1 03:48:55 10° NNW 03:54:33 71° WSW 04:00:07 10° SSE
Cosmos 1271 Rocket 3.0 03:52:22 10° NNW 03:56:03 47° W 03:58:46 16° SSW
SL-16 R/B 2.5 03:52:07 10° SSE 03:58:23 81° WSW 04:04:42 10° NNW
Cosmos 1626 2.1 03:56:57 18° SSW 03:59:39 69° W 04:03:25 10° N
Cosmos 1346 4.0 03:58:39 11° S 04:01:32 46° E 04:04:30 10° NNE
MTI 3.8 04:00:10 10° SSE 04:03:31 90° NW 04:06:55 10° NNW
Abrixas 2.9 04:02:38 13° W 04:05:16 60° NNW 04:08:20 10° ENE
Resurs 1-4 Rocket 2.2 04:01:17 10° NNE 04:06:38 80° ESE 04:11:58 10° S
ISS -2.4 04:06:27 10° NW 04:09:40 51° NNE 04:12:52 10° E
Cosmos 304 Rocket 3.9 04:06:04 10° NNW 04:10:56 82° ENE 04:15:45 10° SSE
USA 215 3.9 04:06:13 10° NE 04:12:28 50° NNW 04:18:44 10° W
Cosmos 2074 Rocket 4.4 04:06:33 10° S 04:12:40 68° E 04:18:53 10° NNE
Cosmos 2112 Rocket 4.0 04:07:49 10° NNW 04:13:03 86° ENE 04:18:15 10° SSE
CZ-4C R/B 4.5 04:09:32 10° WNW 04:13:46 20° NNW 04:18:22 10° NNE
Cosmos 1703 Rocket 3.5 04:09:30 10° N 04:13:54 87° WSW 04:18:14 10° S
Cosmos 2184 Rocket 4.4 04:07:55 10° S 04:14:13 67° E 04:20:31 10° NNE
Cosmos 1980 Rocket 3.7 04:22:24 10° WNW 04:25:49 17° W 04:29:08 10° SW
Cosmos 2360 Rocket 2.4 04:21:39 10° NNW 04:27:19 80° ENE 04:32:57 10° SSE
CZ-2D R/B 3.7 04:24:09 10° NNE 04:28:23 73° E 04:32:29 10° S
BREEZE-M DEB (TANK) 4.5 04:19:30 10° SSW 04:29:01 32° SSE 04:32:31 10° E
CZ-4B R/B 4.0 04:24:29 10° NNE 04:29:48 53° E 04:35:10 10° S
Cosmos 2322 3.8 04:29:21 10° NNW 04:35:08 89° ENE 04:40:52 10° SSE
Cosmos 2219 4.4 04:32:02 10° S 04:37:20 41° ESE 04:42:43 10° NE
Cosmos 2292 Rocket 4.0 04:36:17 10° SW 04:38:50 26° WNW 04:41:44 10° NNW
SL-24 DEB 4.4 04:34:40 10° N 04:39:22 82° E 04:44:01 10° S
Okean O Rocket 1.8 04:35:20 10° NNE 04:39:48 81° ESE 04:44:13 10° S
CZ-2D R/B 2.4 04:37:57 10° N 04:43:02 52° WNW 04:48:07 10° SW
ATLAS CENTAUR R/B 3.1 04:38:38 10° NNW 04:43:13 43° NE 04:47:28 10° ESE
Cosmos 2082 Rocket 4.5 04:43:48 10° WNW 04:45:48 12° NW 04:47:48 10° NNW
CZ-2C R/B 3.8 04:42:00 10° S 04:46:24 59° WSW 04:50:55 10° NNW
IRS-1C Rocket 4.1 04:41:44 10° NNE 04:47:03 80° WNW 04:52:20 10° SSW
PAYLOAD B 4.5 04:41:50 10° NNE 04:47:21 76° ESE 04:52:52 10° S
BREEZE-M DEB (TANK) 4.2 04:56:04 10° WSW 05:14:45 84° NNW 05:19:00 10° ENE
